SAVONLINNA current weather conditions

sailwx.info

Wind from 020 at 7 knots

Air temperature -1.0° C
Visibility: greater than 5.4 NM
Dewpoint -3.0° C

Last reported at 2014-Oct-20 23:20 UTC.
Time now 2014-Oct-21 00:43 UTC

Location: N 61°57' E 028°57'.
View on Google Maps.

See reports from other nearby stations

  
Tides and Currents Weather Stations Pressure Air Temp Water Temp Dewpoint Dewpoint Depression Visibility Wind Speed Wind Dir Waves Ship Positions
date/time (UTC)wind fromknots sea level pressurealtimeterstation pressurevisibilityair tempwater tempwave heightnotes
2014-Oct-20 23:20 020 7 5.4-1.0
2014-Oct-20 22:50 010 7 5.4-1.0
2014-Oct-20 22:20 010 8 5.4-1.0
2014-Oct-20 21:50 010 5 5.4-1.0
2014-Oct-20 21:20 020 7 5.4-0.0
2014-Oct-20 20:50 010 7 5.4-0.0
2014-Oct-20 20:20 010 5 5.4-0.0
2014-Oct-20 19:50 360 5 5.4-0.0
2014-Oct-20 19:20 020 5 5.4-0.0
2014-Oct-20 18:50 030 7 5.4-0.0
2014-Oct-20 18:20 030 7 5.4-0.0
2014-Oct-20 17:50 040 6 5.4-0.0
2014-Oct-20 17:20 050 9 5.4-0.0
2014-Oct-20 16:50 040 7 5.4-0.0
2014-Oct-20 16:20 030 10 5.4-0.0
2014-Oct-20 15:50 030 7 5.4-0.0
2014-Oct-20 15:20 020 7 5.4-0.0
2014-Oct-20 14:50 030 7 5.4-0.0 Light precipitation.
2014-Oct-20 14:20 020 6 5.4-0.0
2014-Oct-20 13:50 030 5 5.4-0.0
2014-Oct-20 13:20 030 6 5.4-0.0
2014-Oct-20 12:50 030 6 5.4-0.0 Light snow grains.
2014-Oct-20 12:20 040 6 2.7-0.0 Light rain snow.
2014-Oct-20 11:50 030 7 2.7-0.0 Light rain snow.
2014-Oct-20 11:20 030 5 3.2-0.0 Light rain.
2014-Oct-20 10:50 030 6 2.7-0.0 Light rain.
2014-Oct-20 10:20 040 5 2.7-0.0 Light snow grains.
2014-Oct-20 09:50 060 7 2.7 1.0 Light snow grains.
2014-Oct-20 09:20 050 8 2.7-0.0 Light snow grains.
2014-Oct-20 08:50 070 8 2.7 1.0 Light snow grains.
2014-Oct-20 08:20 060 8 2.7 1.0 Light rain.
2014-Oct-20 07:50 060 8 2.0 1.0 Light snow grains. Mist.
2014-Oct-20 07:20 060 6 2.3 1.0 Light precipitation. Mist.
2014-Oct-20 06:50 060 7 1.8 1.0 Mist.
2014-Oct-20 06:20 060 7 1.7 1.0 Mist.
2014-Oct-20 05:50 070 7 2.4 1.0 Mist.
2014-Oct-20 05:20 070 8 2.4 2.0 Mist.
2014-Oct-20 04:50 070 7 1.5 2.0 Mist.
2014-Oct-20 03:20 090 5 2.1 1.0 Drizzle.
2014-Oct-20 02:50 090 4 2.2 1.0 Mist.
2014-Oct-20 02:20 100 5 2.4 1.0 Mist.
2014-Oct-20 01:50 090 5 2.6 1.0 Mist.
2014-Oct-20 01:20 100 5 2.2 1.0 Mist.
2014-Oct-20 00:50 100 6 1.7 1.0 Mist.
2014-Oct-20 00:20 100 7 1.0 1.0 Mist.
2014-Oct-19 23:50 100 6 1.8 1.0 Mist.
2014-Oct-19 23:20 090 7 2.4 1.0 Mist.
2014-Oct-19 22:50 090 7 2.1 1.0 Light rain. Mist.
2014-Oct-19 22:20 090 6 1.8 1.0 Light drizzle. Mist.
2014-Oct-19 21:50 100 7 2.6 1.0 Light rain. Mist.
2014-Oct-19 21:20 110 6 2.4 1.0 Light rain showers. Mist.
2014-Oct-19 20:50 110 8 5.4 1.0 Light rain showers.
2014-Oct-19 20:20 110 8 2.0 1.0 Drizzle. Mist.
2014-Oct-19 19:50 110 9 1.6 1.0 Drizzle.
2014-Oct-19 19:20 110 7 2.4 1.0 Drizzle.
2014-Oct-19 18:50 110 8 1.7 1.0 Drizzle.
2014-Oct-19 18:20 110 8 2.1 1.0 Drizzle.
2014-Oct-19 17:50 110 8 5.4 1.0 Light snow grains.
2014-Oct-19 17:20 110 8 5.4 1.0 Light rain.
2014-Oct-19 16:50 110 7 5.4 1.0 Light rain.
2014-Oct-19 16:20 110 7 3.8 1.0 Light rain.
2014-Oct-19 15:50 110 8 5.4 1.0
2014-Oct-19 15:20 120 7 5.4 1.0 Light drizzle.
2014-Oct-19 14:50 120 7 3.2 1.0 Light rain.
2014-Oct-19 14:20 120 8 2.5-0.0 Light rain.
2014-Oct-19 13:50 130 7 2.7 1.0 Light rain.
2014-Oct-19 13:20 120 8 4.3 1.0 Light rain.
2014-Oct-19 12:50 120 8 4.9 1.0 Light rain.
2014-Oct-19 12:20 120 8 1.5 1.0 Light rain.
2014-Oct-19 11:50 130 8 2.1 1.0 Light rain.
2014-Oct-19 11:20 130 7 4.3 1.0 Light rain.
2014-Oct-19 10:50 130 7 2.7 1.0 Light rain.
2014-Oct-19 10:20 130 6 1.8 1.0 Light rain.
2014-Oct-19 09:50 150 7 3.2 1.0 Light rain.
2014-Oct-19 09:20 160 8 3.8 2.0 Light rain.
2014-Oct-19 08:50 150 9 5.4 2.0 Light rain.
2014-Oct-19 08:20 160 9 5.4 3.0 Light drizzle.
2014-Oct-19 07:50 160 8 5.4 3.0
2014-Oct-19 07:20 160 7 5.4 3.0
2014-Oct-19 06:50 160 7 5.4 3.0
2014-Oct-19 06:20 180 8 5.4 3.0
2014-Oct-19 05:50 170 5 5.4 3.0
2014-Oct-19 05:20 150 6 2.0
2014-Oct-19 04:50 160 5 2.0
2014-Oct-19 04:20 160 5 2.0
2014-Oct-19 03:50 160 5 5.4 2.0
2014-Oct-19 03:20 160 5 2.0
2014-Oct-19 02:50 170 5 5.4 2.0 Light snow showers.
2014-Oct-19 02:20 160 4 5.4 2.0 Light rain snow.
2014-Oct-19 01:50 180 4 5.4 2.0 Light rain showers.
2014-Oct-19 01:20 170 5 5.4 2.0 Light rain showers.
2014-Oct-19 00:50 180 6 5.4 1.0 Light snow grains.
2014-Oct-19 00:20 200 5 5.4 1.0 Light rain.